GAP2146 RPLL-RPLK

Flight info

Callsign GAP2146
Flight time 0h 34m
Altitude 25000
Route RDVXTIMON/13 TIMON W15 RAGAY RAGAY1B
Aircraft A20N/M-SDE2E3FGHIJ1RWXY/LB1

Departure

Time 2026-04-22 14:11
Airport Ninoy Aquino International Airport (RPLL)

Arrival

Time 2026-04-22 14:45
Airport Bicol International Airport (RPLK)
Time Latitude Longitude Altitude Speed Heading
2026-04-22 14:01 14.52230 121.00794 68 ft 4 kts 317°
2026-04-22 14:01 14.52262 121.00762 60 ft 8 kts 314°
2026-04-22 14:02 14.52310 121.00707 63 ft 12 kts 313°
2026-04-22 14:02 14.52379 121.00638 67 ft 16 kts 313°
2026-04-22 14:02 14.52463 121.00551 67 ft 19 kts 315°
2026-04-22 14:02 14.52547 121.00440 66 ft 20 kts 281°
2026-04-22 14:03 14.52540 121.00297 61 ft 10 kts 266°
2026-04-22 14:03 14.52513 121.00250 59 ft 4 kts 170°
2026-04-22 14:03 14.52491 121.00269 65 ft 6 kts 142°
2026-04-22 14:03 14.52456 121.00307 66 ft 9 kts 127°
2026-04-22 14:04 14.52406 121.00357 66 ft 12 kts 139°
2026-04-22 14:04 14.52345 121.00420 66 ft 14 kts 132°
2026-04-22 14:04 14.52284 121.00483 62 ft 0 kts 136°
2026-04-22 14:10 14.52283 121.00484 68 ft 1 kts 136°
2026-04-22 14:10 14.52124 121.00648 63 ft 71 kts 135°
2026-04-22 14:10 14.51618 121.01172 70 ft 132 kts 136°
2026-04-22 14:10 14.50887 121.01893 456 ft 149 kts 141°
2026-04-22 14:11 14.50116 121.02637 1106 ft 154 kts 137°
2026-04-22 14:11 14.49300 121.03439 1706 ft 170 kts 136°
2026-04-22 14:11 14.48402 121.04332 2256 ft 189 kts 136°
2026-04-22 14:11 14.47422 121.05308 2760 ft 209 kts 137°
2026-04-22 14:12 14.46361 121.06367 3198 ft 230 kts 137°
2026-04-22 14:12 14.45152 121.07579 3671 ft 254 kts 135°
2026-04-22 14:12 14.43861 121.08906 4361 ft 267 kts 133°
2026-04-22 14:12 14.42824 121.10508 5236 ft 272 kts 114°
2026-04-22 14:13 14.42025 121.12292 6151 ft 276 kts 113°
2026-04-22 14:13 14.41217 121.14099 7033 ft 279 kts 113°
2026-04-22 14:13 14.40400 121.15922 7936 ft 280 kts 113°
2026-04-22 14:13 14.39576 121.17758 8776 ft 285 kts 112°
2026-04-22 14:14 14.38749 121.19631 9658 ft 288 kts 112°
2026-04-22 14:14 14.37909 121.21522 10376 ft 296 kts 114°
2026-04-22 14:14 14.36998 121.23519 10668 ft 320 kts 115°
2026-04-22 14:14 14.36006 121.25657 10917 ft 341 kts 115°
2026-04-22 14:15 14.34979 121.27888 11568 ft 346 kts 114°
2026-04-22 14:15 14.33949 121.30154 12282 ft 351 kts 114°
2026-04-22 14:15 14.32913 121.32456 12993 ft 356 kts 114°
2026-04-22 14:15 14.31868 121.34790 13687 ft 361 kts 115°
2026-04-22 14:16 14.30811 121.37156 14302 ft 365 kts 115°
2026-04-22 14:16 14.29743 121.39544 14922 ft 369 kts 115°
2026-04-22 14:16 14.28662 121.41959 15524 ft 373 kts 115°
2026-04-22 14:16 14.27569 121.44397 16124 ft 377 kts 115°
2026-04-22 14:17 14.26463 121.46864 16712 ft 380 kts 115°
2026-04-22 14:17 14.25346 121.49355 17281 ft 384 kts 115°
2026-04-22 14:17 14.24219 121.51867 17835 ft 388 kts 115°
2026-04-22 14:17 14.23081 121.54402 18353 ft 392 kts 114°
2026-04-22 14:18 14.21925 121.56964 18795 ft 396 kts 116°
2026-04-22 14:18 14.20738 121.59547 19238 ft 400 kts 116°
2026-04-22 14:18 14.19552 121.62141 19667 ft 405 kts 115°
2026-04-22 14:18 14.18362 121.64788 19872 ft 408 kts 116°
2026-04-22 14:19 14.17157 121.67433 20012 ft 409 kts 116°
2026-04-22 14:19 14.15939 121.70102 20468 ft 412 kts 116°
2026-04-22 14:19 14.14726 121.72783 20965 ft 414 kts 116°
2026-04-22 14:19 14.13525 121.75452 21417 ft 418 kts 116°
2026-04-22 14:20 14.11072 121.80918 22314 ft 424 kts 116°
2026-04-22 14:20 14.09825 121.83696 22739 ft 427 kts 116°
2026-04-22 14:20 14.08587 121.86456 23517 ft 419 kts 116°
2026-04-22 14:21 14.06165 121.91849 24614 ft 417 kts 116°
2026-04-22 14:21 14.04934 121.94582 24814 ft 425 kts 116°
2026-04-22 14:22 14.02198 122.00139 24928 ft 442 kts 118°
2026-04-22 14:22 14.00774 122.02938 24933 ft 441 kts 118°
2026-04-22 14:22 13.98015 122.08562 24928 ft 441 kts 114°
2026-04-22 14:23 13.96671 122.11401 24929 ft 441 kts 116°
2026-04-22 14:23 13.95288 122.14215 24932 ft 440 kts 117°
2026-04-22 14:23 13.93881 122.17015 24930 ft 440 kts 117°
2026-04-22 14:23 13.92483 122.19776 24930 ft 440 kts 117°
2026-04-22 14:24 13.91067 122.22576 24929 ft 440 kts 117°
2026-04-22 14:24 13.89656 122.25370 24927 ft 440 kts 117°
2026-04-22 14:24 13.88246 122.28162 24927 ft 440 kts 117°
2026-04-22 14:24 13.86834 122.30959 24928 ft 440 kts 117°
2026-04-22 14:25 13.85424 122.33758 24928 ft 440 kts 117°
2026-04-22 14:25 13.84015 122.36555 24931 ft 440 kts 117°
2026-04-22 14:25 13.82608 122.39349 24930 ft 440 kts 117°
2026-04-22 14:25 13.81198 122.42148 24931 ft 440 kts 117°
2026-04-22 14:26 13.79793 122.44942 24927 ft 440 kts 116°
2026-04-22 14:26 13.78873 122.46796 24930 ft 440 kts 118°
2026-04-22 14:26 13.76996 122.50476 24785 ft 437 kts 119°
2026-04-22 14:26 13.75596 122.53194 24392 ft 436 kts 118°
2026-04-22 14:27 13.74190 122.55946 23894 ft 433 kts 118°
2026-04-22 14:27 13.72752 122.58661 23303 ft 431 kts 122°
2026-04-22 14:27 13.71094 122.61211 22744 ft 426 kts 125°
2026-04-22 14:27 13.69437 122.63716 22205 ft 421 kts 125°
2026-04-22 14:28 13.67803 122.66198 21667 ft 417 kts 125°
2026-04-22 14:28 13.66189 122.68656 21115 ft 413 kts 124°
2026-04-22 14:28 13.64590 122.71093 20594 ft 409 kts 124°
2026-04-22 14:28 13.63005 122.73506 20066 ft 405 kts 124°
2026-04-22 14:29 13.61435 122.75894 19551 ft 402 kts 124°
2026-04-22 14:29 13.59879 122.78260 19061 ft 397 kts 124°
2026-04-22 14:29 13.58341 122.80595 18467 ft 391 kts 124°
2026-04-22 14:29 13.56826 122.82892 17677 ft 386 kts 124°
2026-04-22 14:30 13.55330 122.85162 16867 ft 382 kts 124°
2026-04-22 14:30 13.53852 122.87404 16090 ft 377 kts 124°
2026-04-22 14:30 13.52384 122.89629 15394 ft 375 kts 124°
2026-04-22 14:30 13.51399 122.91123 15067 ft 372 kts 124°
2026-04-22 14:31 13.49971 122.93288 14582 ft 369 kts 124°
2026-04-22 14:31 13.48058 122.96186 13735 ft 363 kts 124°
2026-04-22 14:31 13.47125 122.97597 13214 ft 361 kts 125°
2026-04-22 14:31 13.45707 122.99713 12440 ft 357 kts 122°
2026-04-22 14:32 13.44365 123.01834 11711 ft 352 kts 121°
2026-04-22 14:32 13.43041 123.03933 10990 ft 347 kts 121°
2026-04-22 14:32 13.41705 123.05978 10355 ft 342 kts 124°
2026-04-22 14:32 13.40382 123.07925 10138 ft 323 kts 124°
2026-04-22 14:33 13.39136 123.09756 9968 ft 303 kts 124°
2026-04-22 14:33 13.37963 123.11498 9610 ft 293 kts 123°
2026-04-22 14:33 13.36815 123.13219 9045 ft 290 kts 123°
2026-04-22 14:33 13.35684 123.14924 8486 ft 287 kts 123°
2026-04-22 14:34 13.34566 123.16612 7942 ft 284 kts 123°
2026-04-22 14:34 13.33460 123.18284 7435 ft 283 kts 124°
2026-04-22 14:34 13.32353 123.19953 7090 ft 281 kts 124°
2026-04-22 14:34 13.31257 123.21605 6733 ft 279 kts 124°
2026-04-22 14:35 13.30170 123.23245 6389 ft 277 kts 124°
2026-04-22 14:35 13.29090 123.24876 6024 ft 275 kts 124°
2026-04-22 14:35 13.28015 123.26499 5657 ft 274 kts 124°
2026-04-22 14:35 13.26965 123.28083 5303 ft 272 kts 124°
2026-04-22 14:36 13.25983 123.29566 4983 ft 271 kts 124°
2026-04-22 14:36 13.24924 123.31161 4633 ft 270 kts 124°
2026-04-22 14:36 13.23888 123.32722 4496 ft 259 kts 124°
2026-04-22 14:36 13.22900 123.34216 4418 ft 248 kts 123°
2026-04-22 14:37 13.21963 123.35652 4330 ft 237 kts 123°
2026-04-22 14:37 13.21063 123.37025 4216 ft 228 kts 123°
2026-04-22 14:37 13.20177 123.38366 3979 ft 226 kts 123°
2026-04-22 14:37 13.19295 123.39695 3726 ft 225 kts 123°
2026-04-22 14:38 13.18426 123.41000 3459 ft 224 kts 123°
2026-04-22 14:38 13.17548 123.42318 3230 ft 223 kts 124°
2026-04-22 14:38 13.16679 123.43620 3063 ft 218 kts 124°
2026-04-22 14:38 13.15836 123.44882 3025 ft 217 kts 123°
2026-04-22 14:39 13.15012 123.46117 3023 ft 202 kts 123°
2026-04-22 14:39 13.14248 123.47262 3040 ft 184 kts 123°
2026-04-22 14:39 13.13552 123.48302 3001 ft 170 kts 123°
2026-04-22 14:40 13.12308 123.50168 2754 ft 149 kts 122°
2026-04-22 14:40 13.11739 123.51022 2745 ft 148 kts 122°
2026-04-22 14:40 13.11153 123.51907 2719 ft 148 kts 123°
2026-04-22 14:40 13.10579 123.52771 2564 ft 146 kts 122°
2026-04-22 14:41 13.10013 123.53628 2532 ft 145 kts 121°
2026-04-22 14:41 13.09446 123.54492 2526 ft 147 kts 121°
2026-04-22 14:41 13.08886 123.55347 2525 ft 149 kts 122°
2026-04-22 14:41 13.08305 123.56222 2467 ft 144 kts 122°
2026-04-22 14:42 13.07751 123.57050 2242 ft 140 kts 121°
2026-04-22 14:42 13.07198 123.57877 2060 ft 141 kts 121°
2026-04-22 14:42 13.06637 123.58717 2025 ft 144 kts 121°
2026-04-22 14:42 13.06076 123.59555 1953 ft 140 kts 122°
2026-04-22 14:43 13.05556 123.60396 1687 ft 139 kts 109°
2026-04-22 14:43 13.05566 123.61350 1636 ft 138 kts 69°
2026-04-22 14:43 13.06159 123.62138 1635 ft 143 kts 47°
2026-04-22 14:43 13.06866 123.62878 1489 ft 146 kts 48°
2026-04-22 14:44 13.07546 123.63624 1167 ft 140 kts 49°
2026-04-22 14:44 13.08182 123.64346 933 ft 132 kts 47°
2026-04-22 14:44 13.08797 123.65026 764 ft 131 kts 47°
2026-04-22 14:44 13.09420 123.65722 647 ft 134 kts 46°
2026-04-22 14:45 13.10052 123.66417 511 ft 132 kts 46°
2026-04-22 14:45 13.10673 123.67112 352 ft 132 kts 46°
2026-04-22 14:45 13.11219 123.67710 302 ft 62 kts 47°
2026-04-22 14:45 13.11300 123.67803 303 ft 6 kts 55°
2026-04-22 14:46 13.11301 123.67854 301 ft 9 kts 120°
2026-04-22 14:46 13.11263 123.67901 301 ft 0 kts 135°
2026-04-22 14:46 13.11256 123.67908 301 ft 4 kts 134°
2026-04-22 14:47 13.11232 123.67948 301 ft 9 kts 95°
2026-04-22 14:47 13.11270 123.68019 300 ft 14 kts 52°
2026-04-22 14:47 13.11271 123.68065 303 ft 2 kts 121°
2026-04-22 14:47 13.11247 123.68094 302 ft 9 kts 135°
2026-04-22 14:48 13.11230 123.68110 301 ft 0 kts 137°